RH
17 17 17 16 17 17 18 17 17 17 17 16 16 17 16 16 17 17 17 17 16 21 24 21 20 18 19 26 32 33 37 38 40 44 48 52 48 40 35 37 39 39 37 30 29 32 29 24 19 17 16 17 16 17 18 17 17 18 20 23 27 30 32 33 35 39 44 46 46 45 45 45 47 50 51 53 55 56 54 49 46 45 43 41 38 35 33 34 36 37 35 34 34 34 36 35 30
17 18 17 16 17 17 18 18 17 18 17 16 16 17 16 16 16 16 16 16 18 24 24 18 19 20 19 22 25 29 34 37 39 42 44 43 41 39 36 39 40 40 38 31 29 32 31 26 21 19 17 17 17 16 16 17 17 17 19 21 24 27 30 32 36 42 46 45 45 44 44 45 47 50 51 53 56 56 55 50 46 45 44 43 41 39 36 34 34 35 36 35 34 35 37 34 27
17 17 18 18 18 17 17 17 17 18 17 16 16 17 16 16 15 15 16 18 21 20 18 18 19 20 19 20 24 29 35 41 42 40 39 38 38 40 39 41 42 41 39 33 30 32 32 27 23 20 17 18 17 16 15 17 17 17 19 20 23 25 29 33 39 44 45 45 44 44 43 45 49 50 51 53 56 56 55 52 47 45 44 44 42 40 38 34 32 32 34 35 36 36 35 30 25
17 17 18 18 18 17 18 18 18 17 16 16 17 17 16 16 15 15 20 22 20 18 17 19 22 22 22 25 31 35 40 45 46 39 38 38 38 42 41 42 43 42 39 36 33 31 31 27 24 22 18 18 17 16 16 17 17 18 20 21 22 25 31 36 41 44 43 44 44 43 43 45 49 50 51 53 56 56 55 53 49 46 44 44 43 41 40 37 31 28 28 31 35 35 31 27 25
18 19 19 18 18 18 18 18 18 16 16 16 16 16 15 15 15 16 21 21 17 17 18 19 23 27 28 29 31 39 44 44 45 39 37 39 39 43 43 43 44 41 38 38 36 32 31 26 24 23 19 18 17 16 16 17 18 18 20 22 25 30 35 40 41 42 42 43 43 42 42 45 48 49 50 53 56 56 55 53 49 46 43 42 40 38 37 36 32 29 28 28 31 32 30 27 26
20 20 20 19 19 19 18 18 18 16 16 16 15 15 15 16 17 16 17 16 15 15 17 19 22 27 33 32 28 35 40 39 41 39 37 39 41 42 43 44 43 40 36 38 39 33 30 27 24 24 19 18 17 15 16 17 19 20 22 26 30 34 38 40 40 41 41 41 42 40 42 45 46 48 49 50 53 55 53 51 48 44 41 37 33 31 31 33 35 34 31 28 29 31 32 29 27
20 20 19 19 18 18 18 18 18 17 16 15 15 14 13 17 17 14 13 13 14 16 17 19 22 25 31 34 33 34 34 37 40 38 38 40 41 41 41 42 41 39 36 39 41 34 31 27 24 24 19 18 16 15 16 17 19 21 27 32 33 36 38 39 39 40 40 40 41 41 43 45 44 45 46 45 47 50 50 48 45 41 36 31 28 27 28 32 38 39 35 31 30 31 33 33 30
19 19 19 19 18 18 18 17 17 15 15 14 15 14 12 16 15 13 13 13 14 17 21 22 25 27 28 33 38 39 37 38 40 40 41 41 42 42 41 41 41 39 37 40 41 36 33 29 27 26 20 18 16 14 16 17 18 21 28 33 34 36 37 38 38 39 40 40 40 41 44 45 44 43 43 41 39 42 44 43 41 38 34 30 28 27 28 32 38 41 39 37 32 31 33 36 34
18 18 19 19 18 18 17 16 16 15 15 14 14 14 13 15 15 13 13 13 13 15 21 23 27 29 30 37 41 41 40 39 40 42 43 42 43 43 43 43 42 41 39 40 41 37 35 32 30 28 23 19 16 15 16 16 18 20 26 33 35 35 36 37 38 39 40 40 40 42 46 46 43 41 39 38 36 37 39 39 38 38 37 34 31 29 30 32 36 41 43 41 37 32 32 35 36
17 16 16 18 18 17 16 15 16 15 15 14 14 14 14 15 14 14 13 13 13 14 16 17 25 29 32 42 44 40 42 43 42 44 44 43 43 43 44 44 42 40 39 41 41 37 35 34 33 30 26 22 17 15 15 16 17 21 27 33 34 34 35 37 37 39 40 40 42 44 46 45 41 38 36 36 35 36 37 38 38 39 39 38 37 34 33 34 34 38 42 42 41 37 33 33 33
15 15 14 16 16 15 14 14 14 15 15 14 14 14 14 15 14 15 13 13 13 13 15 14 22 29 32 42 45 45 45 45 44 45 45 43 44 44 44 44 41 38 40 42 41 38 35 35 35 32 30 27 20 17 15 15 16 20 28 32 32 34 35 36 38 39 40 42 44 47 47 44 40 36 34 34 36 36 37 39 39 40 40 40 40 40 39 38 36 36 40 42 42 41 38 35 32
12 13 12 13 13 14 13 13 13 13 14 13 13 14 14 14 14 14 13 13 13 13 14 14 22 28 33 43 45 47 47 44 47 46 45 43 43 43 42 42 39 38 41 43 43 38 35 36 35 33 32 31 25 20 16 15 17 19 27 32 32 34 34 35 38 39 41 43 46 47 46 43 39 35 33 34 35 37 38 39 40 40 40 42 42 43 44 43 40 37 37 40 42 42 42 40 37
10 11 11 11 10 12 12 11 12 11 12 12 13 13 13 13 13 13 12 12 12 12 11 11 20 28 37 47 47 47 46 44 46 45 43 41 40 41 39 40 39 40 43 44 44 40 38 37 36 34 34 33 30 26 20 16 17 20 28 33 33 33 33 35 38 40 42 44 46 46 44 41 38 34 33 33 35 38 39 39 40 40 40 42 43 45 47 46 44 40 38 39 41 42 43 42 41
11 11 11 11 9 9 9 9 10 10 10 11 10 10 10 10 10 10 10 9 9 8 9 8 14 30 40 44 46 48 47 44 44 42 40 38 38 39 38 39 40 42 46 45 45 43 41 41 39 36 36 36 34 31 25 20 19 21 27 32 32 32 33 36 38 40 41 44 45 44 42 39 36 34 34 33 35 38 38 38 38 39 41 42 43 45 46 47 45 43 41 40 41 43 43 43 43
13 12 12 12 12 9 9 8 8 9 9 9 8 8 8 7 8 8 8 7 8 7 7 6 11 31 40 36 40 45 45 43 41 40 38 37 38 41 41 41 43 44 47 47 45 44 42 42 41 39 40 41 38 37 31 25 22 20 24 28 32 33 34 36 37 39 41 43 44 42 40 38 36 35 34 33 34 37 37 36 36 37 41 42 43 43 44 47 48 46 44 42 42 44 45 46 45
14 13 13 13 13 11 10 9 9 9 9 10 8 8 8 6 7 7 9 8 9 9 7 8 13 29 43 42 40 43 46 43 40 40 38 38 39 42 43 44 47 47 48 50 50 48 45 44 42 41 44 43 42 41 35 30 26 22 21 24 31 35 37 37 37 39 41 43 43 40 41 42 39 36 37 36 34 36 37 35 33 34 38 40 41 41 43 44 47 48 46 44 43 45 48 49 48
14 14 14 13 13 13 12 11 11 10 10 12 9 9 8 7 11 13 15 13 12 12 8 14 22 33 47 46 41 45 50 46 40 41 39 39 39 40 42 45 49 50 50 52 52 51 49 47 46 46 46 44 43 41 36 34 30 26 22 24 32 36 37 37 37 38 40 41 40 39 43 47 45 43 45 42 38 36 36 34 32 32 34 36 38 39 42 43 44 47 48 46 44 47 49 50 50
13 13 13 14 13 12 12 13 14 12 12 13 10 11 9 8 18 23 21 16 13 13 11 19 31 41 47 42 43 52 53 48 44 42 41 40 39 40 43 47 51 53 54 53 52 51 49 50 50 49 47 45 44 41 39 36 33 31 25 28 37 38 37 37 38 38 39 39 37 41 47 48 49 50 49 46 45 41 36 34 33 32 33 35 36 38 43 45 45 49 51 48 46 47 49 51 53
12 12 12 12 11 12 13 15 15 13 12 14 13 11 11 10 20 28 24 18 13 14 14 19 32 43 46 43 47 53 52 49 45 43 42 41 39 41 45 48 51 53 55 55 53 52 52 53 53 51 48 46 44 42 42 37 37 39 34 36 40 39 38 36 39 39 41 41 38 44 48 48 49 49 47 45 45 44 38 36 34 34 34 35 35 38 43 46 47 50 52 49 48 49 50 54 57
12 11 12 10 10 12 13 13 12 12 12 14 14 12 13 10 16 24 22 20 14 13 17 20 31 41 44 46 47 48 48 46 44 44 43 43 42 42 45 48 50 52 54 55 54 53 54 53 55 54 50 48 46 43 44 41 42 45 44 44 41 41 39 36 38 39 43 46 43 45 46 47 49 43 38 39 43 44 41 38 38 38 37 35 34 36 39 44 48 51 52 52 52 51 53 59 63
12 10 11 11 10 12 12 13 10 10 10 11 12 12 13 12 13 16 16 23 20 17 22 23 32 38 39 45 47 44 44 44 45 44 42 44 47 46 48 49 49 50 50 51 52 51 52 53 55 55 51 49 47 45 46 46 46 46 47 47 44 44 42 39 41 43 45 46 46 47 44 43 48 45 38 42 49 50 46 42 42 42 40 38 34 36 40 43 47 51 55 55 54 55 59 63 64
12 10 10 11 12 13 14 14 10 9 9 9 10 10 13 13 14 13 12 21 27 28 29 29 34 36 36 44 46 43 42 44 44 43 43 45 48 49 49 49 48 47 47 47 50 51 51 55 56 52 49 48 48 47 46 47 47 46 47 48 46 46 45 44 45 46 46 46 46 47 42 40 46 49 46 49 52 52 51 47 46 46 46 46 40 42 50 48 48 54 61 62 62 66 69 68 64
12 10 10 10 13 16 15 13 11 9 9 8 9 9 11 12 13 14 11 15 28 36 33 35 37 32 38 47 45 41 41 43 43 43 44 46 48 48 48 48 48 48 48 48 50 52 51 53 53 49 48 49 49 48 47 47 46 46 48 47 46 46 47 46 44 44 46 47 46 44 42 45 49 51 51 54 55 56 57 54 54 53 52 55 50 50 55 52 49 53 58 60 62 64 65 66 68
11 11 11 11 12 14 14 13 12 10 9 9 9 10 11 13 13 14 14 13 28 40 40 44 41 34 41 47 42 40 41 42 45 46 46 48 48 46 46 47 49 49 48 48 50 50 48 48 49 49 49 47 46 46 46 45 45 48 48 46 45 46 47 46 45 45 45 44 41 41 42 47 52 56 57 61 63 64 64 62 60 58 56 59 58 57 58 57 55 55 54 55 56 56 56 60 65
12 11 12 13 12 12 12 13 13 12 10 10 10 11 10 12 13 15 18 17 27 41 46 49 43 39 42 40 39 41 43 44 46 46 45 47 47 45 46 48 50 49 46 46 48 47 45 48 50 49 48 46 45 45 43 43 46 49 49 47 46 46 47 46 43 42 43 41 38 40 42 45 52 60 65 68 69 67 64 61 58 56 55 56 59 60 60 59 58 56 55 53 52 53 53 53 55
12 10 11 13 13 12 12 12 12 12 12 11 10 11 10 11 13 17 20 23 33 40 43 47 42 42 41 36 40 43 42 43 41 41 44 46 46 44 46 47 47 46 46 46 46 45 47 50 51 49 48 47 47 45 41 42 47 49 50 49 47 48 47 45 42 41 44 45 45 46 46 51 58 64 68 68 67 63 59 56 53 52 53 53 55 57 56 55 56 55 54 52 50 49 49 48 47
14 12 10 12 13 11 12 11 11 11 12 12 11 10 10 11 15 19 22 28 39 42 46 48 41 42 39 34 41 44 42 41 40 42 45 46 45 44 46 46 44 45 46 47 47 48 50 51 49 49 49 47 47 45 43 45 48 50 51 48 47 50 48 44 45 46 48 51 54 55 55 58 62 65 65 63 60 54 50 49 48 48 49 50 51 51 50 49 51 50 50 50 47 44 44 43 41
16 14 11 10 11 11 11 11 10 11 11 11 11 10 10 12 15 23 32 35 37 42 48 44 37 41 38 33 38 42 42 44 46 49 48 45 44 45 46 45 45 46 46 46 48 49 50 50 49 49 49 47 47 47 47 49 50 51 52 51 51 51 50 50 52 53 56 58 59 59 59 60 62 63 61 56 51 45 41 41 42 43 43 45 46 45 44 43 44 44 43 43 41 39 40 39 38
15 14 12 10 9 9 10 10 10 11 11 12 12 10 11 11 13 26 41 42 37 39 43 39 35 39 40 39 41 42 45 50 54 54 50 45 43 44 46 48 47 45 45 45 46 47 48 49 50 50 48 47 48 49 50 51 51 52 54 55 55 54 55 58 59 59 61 61 60 60 60 60 60 58 54 47 41 38 36 35 36 39 41 41 41 39 37 37 38 40 40 39 39 40 41 42 40
14 13 12 12 11 10 9 9 10 11 11 12 12 11 12 10 13 28 40 40 37 38 42 40 35 37 43 49 51 50 51 54 56 54 51 47 47 49 49 50 48 46 46 45 46 46 47 48 51 50 47 48 50 50 50 51 53 54 56 57 58 59 59 62 64 64 63 60 59 60 58 57 55 51 45 38 34 33 33 35 35 37 38 36 35 35 36 39 39 39 41 41 42 42 42 43 42
14 14 13 12 13 11 8 9 9 10 11 11 12 12 11 10 15 28 37 39 38 39 44 45 40 44 53 55 54 55 53 55 57 54 53 53 52 53 51 49 48 47 48 48 48 47 46 48 49 46 47 52 51 50 50 52 54 56 59 60 59 59 59 61 62 62 63 60 58 57 54 51 47 42 38 35 34 34 36 37 37 36 35 33 33 34 35 39 39 39 40 40 41 41 42 42 41
14 14 14 11 12 12 10 10 8 9 10 10 12 11 11 19 26 32 37 39 41 47 52 53 54 59 64 61 55 57 58 59 62 59 57 58 56 55 54 52 50 51 53 52 51 50 48 47 47 46 50 54 52 51 53 55 56 56 59 59 58 57 57 57 57 57 58 57 55 53 48 44 42 40 39 38 36 38 40 40 39 36 33 33 34 34 35 37 37 37 37 37 38 39 40 41 41
14 13 15 12 10 11 12 12 9 8 11 11 12 9 14 32 41 39 41 43 48 59 62 60 66 68 70 71 62 61 65 64 66 66 64 62 60 59 59 56 54 56 60 57 53 51 49 49 51 54 56 57 56 57 57 58 58 57 57 58 58 57 56 55 55 55 55 54 53 50 44 40 40 40 40 39 36 37 41 39 38 36 33 36 36 36 37 38 38 38 37 38 39 38 38 38 40
15 13 15 14 10 10 13 15 11 9 10 12 12 8 15 33 41 43 50 53 54 61 61 58 68 73 73 74 66 62 68 69 68 70 72 68 62 62 62 62 59 58 62 61 55 51 52 56 58 59 60 60 60 62 61 61 61 59 59 60 61 58 56 55 54 55 54 52 50 46 41 38 39 39 38 38 35 36 39 38 38 36 35 37 36 37 38 38 39 38 37 39 39 38 37 37 38
17 15 14 14 11 9 15 18 13 10 10 12 13 10 14 28 41 51 60 62 56 57 55 53 66 76 74 74 77 75 73 73 70 70 74 69 63 63 65 68 66 64 66 65 61 56 58 64 66 64 64 64 63 62 63 64 62 63 63 61 61 60 57 55 54 55 52 48 45 41 39 38 38 38 38 38 36 37 40 40 38 36 35 35 36 38 39 38 38 35 35 36 36 37 37 38 39
16 16 14 14 13 10 13 17 14 11 9 12 13 11 12 22 42 56 64 65 59 58 61 60 68 74 70 71 81 82 73 69 68 67 70 67 63 64 68 73 73 73 72 69 68 65 64 70 72 69 67 68 68 65 65 64 63 65 63 61 63 63 60 58 54 51 48 46 44 42 40 38 38 39 39 38 37 37 38 40 39 34 34 37 37 37 36 34 32 31 34 36 36 36 38 41 41
15 16 15 14 16 12 10 14 14 10 11 12 12 14 12 20 39 49 55 61 56 58 64 63 64 65 63 64 73 79 73 69 68 66 67 67 67 65 68 75 77 77 73 68 70 71 73 76 76 75 71 71 73 71 69 66 65 63 61 67 69 63 61 58 51 48 47 45 45 44 42 38 37 37 37 36 35 34 36 40 39 34 35 37 33 31 29 29 29 32 36 38 39 38 40 43 44
16 17 16 15 17 15 11 13 14 11 12 12 13 14 12 21 38 42 46 54 53 52 55 54 53 54 56 58 66 78 79 75 71 69 69 69 67 65 68 75 75 75 72 66 68 72 76 79 80 78 74 73 75 74 72 69 66 61 60 69 67 58 59 55 49 50 48 44 42 41 39 37 36 36 36 35 34 34 35 37 36 33 33 32 27 26 27 29 31 35 39 40 40 41 42 44 45
18 19 18 15 15 15 15 15 14 13 11 12 13 12 16 26 36 42 44 49 51 48 47 49 48 49 52 50 56 70 75 75 73 71 72 70 67 65 68 73 71 69 69 67 71 77 77 79 83 81 75 74 74 76 75 68 64 63 61 64 61 55 57 53 49 50 46 41 40 37 37 36 35 35 35 34 34 34 34 33 33 30 28 26 24 25 30 34 34 34 36 38 39 42 44 44 44
20 20 18 16 15 15 17 17 14 14 11 12 14 13 28 39 36 42 47 46 49 48 46 50 47 46 49 41 45 61 66 70 74 71 71 69 68 67 68 71 69 65 67 68 74 80 78 79 86 86 80 77 75 75 73 64 61 64 63 60 58 55 54 50 47 45 40 39 37 36 37 36 35 35 33 33 33 32 32 32 31 29 26 26 26 28 32 35 35 33 33 34 37 39 42 43 42
20 19 17 16 16 15 20 21 15 14 12 12 18 19 33 48 45 45 48 46 50 50 47 50 46 44 45 37 40 55 61 67 70 70 71 71 70 69 68 69 68 64 68 71 75 79 79 82 85 86 84 81 80 75 67 63 62 65 63 58 54 51 48 45 43 41 39 38 38 38 38 38 38 35 33 34 33 32 32 32 30 30 30 30 30 32 34 33 32 32 32 31 32 33 35 39 42
19 18 16 16 18 17 22 24 15 15 13 11 20 21 25 44 54 48 42 44 50 50 46 46 44 42 41 39 42 49 55 60 62 62 65 67 69 70 68 68 66 65 69 73 77 79 82 83 80 82 85 82 80 71 64 66 65 62 61 57 54 51 46 44 43 41 40 39 39 39 38 38 36 33 32 32 30 30 32 33 32 32 33 33 32 32 33 32 31 32 31 31 31 31 31 34 38
19 17 16 16 19 19 22 23 15 15 14 10 16 18 19 35 47 44 42 46 49 49 45 40 40 41 39 40 43 44 47 51 54 54 56 61 65 67 67 68 66 68 71 74 77 77 80 82 80 83 85 79 75 70 66 67 64 59 57 55 54 50 46 45 43 41 41 41 40 40 39 36 33 31 31 30 28 28 30 33 33 32 33 32 32 33 33 33 32 31 31 31 31 31 31 31 32
17 15 16 17 19 22 25 23 16 14 14 13 13 15 19 29 39 42 47 51 50 47 41 37 37 38 38 41 42 43 44 46 48 51 56 62 65 66 69 71 69 69 72 74 76 76 79 83 83 84 83 80 78 74 69 66 62 59 56 52 51 48 47 46 44 43 43 42 41 41 39 36 32 29 29 29 29 28 27 29 30 29 29 29 30 32 34 33 29 28 30 31 31 31 32 32 31
16 17 16 17 19 23 26 22 17 15 15 17 16 13 14 24 38 47 46 47 50 48 40 37 38 36 38 41 41 44 46 46 48 53 60 64 68 71 73 73 72 71 72 74 76 77 79 82 82 81 80 81 79 72 67 64 60 56 53 52 51 49 48 47 45 45 44 43 42 41 39 37 35 31 29 28 28 28 28 28 26 24 24 25 26 28 30 32 29 25 28 30 30 32 33 33 33
16 19 18 18 20 21 23 21 18 17 17 19 21 17 11 16 35 49 47 44 46 47 42 38 36 34 37 40 43 48 49 47 49 57 61 63 70 75 75 72 73 74 73 72 74 76 77 78 79 80 79 77 72 66 62 59 55 53 52 52 51 50 48 46 45 45 44 44 42 41 38 34 35 34 30 28 27 27 27 26 24 22 22 23 24 24 24 27 27 26 29 31 32 33 35 36 35
17 22 19 18 19 19 21 20 17 18 18 21 25 23 14 16 33 45 43 41 41 44 47 42 36 34 35 38 42 49 52 51 51 57 60 63 69 73 72 71 75 76 73 70 71 72 71 73 76 77 74 70 66 59 55 54 53 53 51 51 50 49 47 45 45 45 44 43 41 41 37 33 32 31 29 28 26 26 25 23 22 21 21 20 21 21 20 23 25 25 28 34 37 35 34 37 36
19 23 20 18 18 19 22 20 19 19 17 21 23 22 18 19 32 41 37 36 40 43 46 44 39 34 31 36 42 47 52 56 55 57 59 61 65 68 70 74 77 78 74 71 72 70 70 74 77 74 67 61 58 54 54 55 54 51 50 49 48 47 46 46 46 45 44 43 41 40 37 36 35 31 28 27 25 24 23 22 21 20 20 20 21 21 21 24 25 24 28 34 35 34 34 36 35
20 23 20 19 19 20 22 21 21 19 19 24 21 19 21 18 21 32 36 35 36 40 42 40 41 41 39 44 49 49 52 56 57 57 57 59 62 66 73 77 77 78 77 74 73 72 71 72 71 67 61 58 55 54 56 56 53 51 50 48 46 46 46 46 46 45 44 44 42 40 39 39 39 36 32 29 25 23 23 22 22 22 22 23 23 23 24 25 25 26 31 32 29 30 31 30 32
22 24 21 19 19 21 25 23 21 19 21 24 19 16 21 20 17 24 35 38 35 38 42 40 40 45 48 49 47 47 50 54 56 56 55 59 63 68 77 79 77 78 79 74 71 69 69 67 64 62 59 57 55 55 57 55 53 52 51 49 48 48 48 46 46 46 45 44 41 40 40 39 39 38 33 29 25 24 25 25 25 25 25 25 25 25 25 26 25 25 28 27 25 27 27 27 29
23 23 21 18 18 21 24 23 21 22 21 20 20 17 19 24 26 26 32 39 37 37 42 42 39 40 46 47 43 45 53 56 56 55 56 62 66 69 75 76 73 75 77 74 70 68 68 65 62 61 60 59 58 58 58 56 54 53 52 51 51 50 48 46 45 42 42 40 39 39 38 36 36 34 29 27 26 26 27 27 28 28 27 26 27 26 26 27 26 25 26 25 26 26 26 27 28
24 23 21 18 18 21 22 23 26 27 24 23 22 19 23 31 34 31 33 38 37 37 39 38 33 34 44 50 45 47 54 58 57 55 57 63 63 66 72 73 72 71 73 74 72 71 71 66 62 61 61 61 60 60 59 57 56 54 51 49 48 48 48 45 42 38 36 35 34 35 34 32 31 29 27 27 28 28 29 29 29 28 28 28 28 28 28 27 27 27 26 26 27 25 26 30 30
26 24 22 17 18 25 27 25 28 28 27 28 23 19 28 36 36 36 35 34 35 37 37 35 33 36 47 54 49 48 52 54 53 52 57 61 60 66 74 75 74 72 73 74 72 72 72 68 64 63 61 61 60 58 56 55 54 52 49 47 46 47 46 43 39 36 35 33 31 31 31 31 30 29 29 29 30 31 30 30 30 29 29 30 29 29 28 28 28 26 26 30 29 25 28 36 38
27 24 22 19 19 26 31 30 30 28 27 31 27 22 27 31 35 41 40 34 34 36 36 39 41 43 48 51 48 50 51 50 49 51 59 64 62 65 71 71 72 72 73 74 70 68 70 68 65 62 61 60 59 56 51 49 50 49 48 50 50 48 45 41 40 40 40 36 33 32 32 32 31 31 31 32 32 33 31 31 31 30 30 30 29 29 28 28 28 26 27 31 30 26 32 40 41
25 24 23 23 21 23 28 32 32 29 26 29 31 27 24 26 33 40 37 33 35 37 38 41 42 44 46 44 44 50 51 49 49 51 59 63 61 62 67 69 71 72 74 74 67 63 64 65 63 62 61 60 58 54 48 46 49 51 52 53 53 50 45 40 39 39 39 36 35 34 33 32 32 32 33 33 33 33 32 31 31 31 31 30 30 29 28 28 27 27 27 27 29 33 38 40 40
23 25 25 25 24 22 24 28 29 30 28 27 32 35 28 25 32 37 35 31 31 33 38 40 37 39 43 43 43 47 48 47 49 52 57 60 61 65 72 73 73 73 74 73 68 65 64 63 63 61 59 59 56 50 46 47 49 52 54 55 56 54 49 45 41 38 37 36 34 34 34 33 33 33 33 33 33 32 31 31 31 31 31 30 30 29 27 27 26 26 26 26 30 37 38 37 38
22 24 26 25 25 23 24 27 28 30 29 25 29 36 32 26 31 37 35 32 29 28 36 41 37 36 41 43 41 44 46 47 50 54 57 59 63 70 74 73 72 71 71 71 70 68 67 66 65 64 62 61 57 51 48 51 51 52 54 56 58 57 54 51 47 40 37 36 35 34 34 34 33 33 33 32 32 32 32 32 32 32 32 31 31 29 27 25 25 25 27 29 33 36 35 35 35
22 22 24 25 26 26 27 31 30 27 27 27 26 27 27 29 36 40 38 34 30 28 33 41 40 39 43 43 39 42 46 48 50 54 57 60 66 70 70 67 67 67 68 69 68 67 70 70 69 69 69 67 63 59 56 54 53 54 57 59 59 58 57 55 47 40 37 37 36 36 35 34 33 32 32 32 32 33 34 34 33 32 32 31 30 28 25 22 22 27 31 32 33 35 34 34 34